Regional Weather Roundup
Issued by NWS Green Bay, WI

Home | Current Version | Previous Version | Graphics & Text | Print | Product List | Glossary Off
Versions: 1 2 3 4 5 6 7 8 9 10 11 12 13 14 15 16 17 18 19 20 21 22 23 24 25 26 27 28 29 30 31 32 33 34 35 36 37 38 39 40 41 42 43 44 45 46 47 48 49 50

000
ASUS43 KGRB 251510
RWRGRB

NORTH-CENTRAL AND NORTHEAST WISCONSIN REGIONAL WEATHER ROUNDUP
NATIONAL WEATHER SERVICE GREEN BAY WI
900 AM CST SUN JAN 25 2015

WIZ005-009-010>012-018-019-251600-
NORTH CENTRAL WISCONSIN

CITY           SKY/WX    TMP DP  RH WIND       PRES   REMARKS
IRONWOOD       CLOUDY    12   7  79 E8        29.98R WCI   1
MANITOWISH WTR FLURRIES  12   6  79 E10       29.95R WCI  -2
ARBOR VITAE    CLOUDY    14   8  75 NE8       29.95R WCI   3
EAGLE RIVER    CLOUDY    12   5  71 E9        29.94R WCI   0
LAND O LAKES   FLURRIES  12   6  76 NE7       29.96R WCI   2
RHINELANDER    CLOUDY    12   5  73 E10       29.94R WCI  -1
PHILLIPS       FLURRIES  14   8  76 NE8       29.94R WCI   2
ANTIGO         CLOUDY    13   8  77 E12G17    29.94R WCI   0
TOMAHAWK       CLOUDY    14   7  73 NE9       29.95R WCI   2
MERRILL        FLURRIES  17   9  71 E13       29.95R WCI   3
$$

WIZ013-073-251600-
NORTHEAST WISCONSIN

CITY           SKY/WX    TMP DP  RH WIND       PRES   REMARKS
IRON MOUNTAIN  LGT SNOW  15   8  73 NE7       29.98R WCI   5
MARINETTE      CLOUDY    16   7  67 E15       30.02R WCI   1
OCONTO         PTSUNNY   16   8  72 MISG      30.02R
$$

WIZ017-030-035>037-045-251600-
CENTRAL WISCONSIN

CITY           SKY/WX    TMP DP  RH WIND       PRES   REMARKS
MEDFORD        CLOUDY    15   8  75 E12       29.93R WCI   2
WAUSAU         FLURRIES  17   9  70 E12       29.94R WCI   4
MOSINEE        FLURRIES  18  12  79 NE8       29.94R WCI   7
MARSHFIELD     CLOUDY    19  10  68 NE12      29.93R WCI   7
WISC RAPIDS    CLOUDY    20  10  65 NE9       29.96R WCI   9
STEVENS POINT  FLURRIES  16   9  74 E14       29.96R WCI   2
WAUPACA        CLOUDY    21  13  70 E12G18    29.98R WCI   9
SHAWANO        CLOUDY    19   9  66 NE15G22   30.00R WCI   5
CLINTONVILLE   FLURRIES  19  10  68 NE15      29.98R WCI   5
$$

WIZ038-039-048-051-251600-
FOX VALLEY

CITY           SKY/WX    TMP DP  RH WIND       PRES   REMARKS
NWS GREEN BAY  CLOUDY    17   9  70 NE24      29.98R WCI  -1
APPLETON       CLOUDY    18   9  68 NE16G22   29.95R WCI   3
OSHKOSH        FLURRIES  19  11  70 NE20G28   29.94R WCI   3
FOND DU LAC    CLOUDY    22  14  71 NE17G25   29.93R WCI   8
$$

WIZ022-050-052-251600-
EAST CENTRAL WISCONSIN

CITY           SKY/WX    TMP DP  RH WIND       PRES   REMARKS
STURGEON BAY   CLOUDY    16   7  67 NE14      30.00R WCI   1
MANITOWOC      CLOUDY    23  14  68 NE14G20   29.96R
SHEBOYGAN      CLOUDY    23  15  71 NE21G31   29.92R WCI   8
$$

LMZ563-521-522-541>543-251600-
LAKESHORE

STATION/POSITION TIME  TEMP    WIND        PRES    VSBY  WAVE
                       AIR SEA DIR/SP/G                  HT/PER
                 (UTC) (F)     (DEG/KT/KT) (MB)    (MI)  (FT/S)
SHEBOYGAN LKSHOR 1500   23      50/ 26/ 29 1014.6R
KEWAUNEE LKSHORE 1500   22      50/ 20/ 25 1014.0R
NORTHPORT PIER   1500   15      10/ 14/ 22 1016.9R
SISTER BAY LKSHO 1500   16      10/ 16/ 23   N/A
STURGEON BAY CG  1400          270/  5     1022.6      6   1
CHAMBERS ISLAND  1500   15      10/ 18/ 22 1016.6R
MENOMINEE LKSHOR 1500   15      30/ 20/ 23 1017.3R
$$


USA.gov is the U.S. government's official web portal to all federal, state and local government web resources and services.